Location: Noverd
(38.0910°N, 121.6877°W)
Time: 07:12:43
(UTC+00:00)

Cosmos 1934 Rocket - Pass Details

Date: 13 February 2026
Orbit: 938 x 997 km, 83.0° (Epoch: 9 March)

Event Time Altitude Azimuth Distance (km) Brightness Sun altitude
Rises 12:22:34 0° 174° (S) 3,591 7.0 -31.3°
Reaches altitude 10° 12:25:03 10° 170° (S) 2,656 6.3 -30.8°
Maximum altitude 12:31:00 60° 92° (E) 1,088 4.4 -29.7°
Drops below altitude 10° 12:37:03 10° 15° (NNE) 2,709 6.5 -28.5°
Sets 12:39:37 0° 11° (NNE) 3,668 7.2 -28.0°
